Location: Kumla
(59.1265°N, 15.1401°E)
Time: 20:39:29
(UTC+01:00)

Transit 2A - Pass Details

Date: 12 December 2023
Orbit: 600 x 953 km, 66.7° (Epoch: 24 February)

Event Time Altitude Azimuth Distance (km) Brightness Sun altitude
Rises 20:32:25 0° 308° (NW) 2,896 9.8 -39.7°
Enters shadow 20:34:33 - 311° (NW) 2,035 8.8 -40.0°
Reaches altitude 10° 20:34:43 10° 311° (NW) 1,968 - -40.0°
Maximum altitude 20:39:05 66° 34° (NE) 660 - -40.5°
Drops below altitude 10° 20:43:26 10° 118° (ESE) 1,962 - -41.0°
Sets 20:45:43 0° 121° (ESE) 2,886 - -41.3°
